When you browse on this site, cookies collect data to enhance your experience and personalize the content and advertising you see.
Visit our Privacy Policy to learn more. By continuing to use the site, you agree to this use of cookies and data.
  • In France
  • List of Countries
  • For 7 days
  • Water Temperature
  • Satellite Maps
  • Weather Map
  • Weather Widgets
  • user-avatar
    Login

    Hourly Weather Pecherzew

    Today, 9 December, Sunday

    Time Temperature Precipitation Wind Pressure Humidity
    00:00 +3°C° 0 mm 6 mps 740 mmHg 78%
    01:00 +3°C° 0 mm 6 mps 739 mmHg 80%
    02:00 +3°C° 0 mm 6 mps 738 mmHg 80%
    03:00 +3°C° 0 mm 6 mps 737 mmHg 81%
    04:00 +2°C° 0 mm 6 mps 736 mmHg 81%
    05:00 +3°C° 0.2 mm 6 mps 736 mmHg 82%
    06:00 +3°C° 0.2 mm 7 mps 735 mmHg 82%
    07:00 +3°C° 0 mm 7 mps 734 mmHg 82%
    08:00 +4°C° 0.4 mm 7 mps 734 mmHg 81%
    09:00 +4°C° 0.4 mm 7 mps 733 mmHg 80%
    10:00 +5°C° 0.4 mm 7 mps 733 mmHg 79%
    11:00 +5°C° 0.3 mm 7 mps 733 mmHg 79%
    12:00 +5°C° 0.3 mm 7 mps 733 mmHg 79%
    13:00 +5°C° 0 mm 7 mps 733 mmHg 77%
    14:00 +5°C° 0.2 mm 7 mps 734 mmHg 78%
    15:00 +5°C° 0.2 mm 7 mps 734 mmHg 79%
    16:00 +5°C° 0.2 mm 6 mps 734 mmHg 80%
    17:00 +5°C° 0.1 mm 6 mps 735 mmHg 81%
    18:00 +4°C° 0.1 mm 6 mps 735 mmHg 82%
    19:00 +4°C° 0.1 mm 6 mps 736 mmHg 83%
    20:00 +4°C° 0.1 mm 6 mps 736 mmHg 82%
    21:00 +4°C° 0.1 mm 6 mps 736 mmHg 82%
    22:00 +4°C° 0.1 mm 6 mps 736 mmHg 82%
    23:00 +4°C° 0.3 mm 6 mps 737 mmHg 82%

    Tomorrow, 10 December, Monday

    Time Temperature Precipitation Wind Pressure Humidity
    00:00 +4°C° 0.3 mm 7 mps 737 mmHg 81%
    01:00 +4°C° 0.3 mm 7 mps 737 mmHg 81%
    02:00 +4°C° 0.4 mm 7 mps 737 mmHg 80%
    03:00 +4°C° 0.4 mm 8 mps 738 mmHg 80%
    04:00 +2°C° 0.4 mm 8 mps 738 mmHg 79%
    05:00 +2°C° 0.2 mm 8 mps 739 mmHg 77%
    06:00 +3°C° 0.2 mm 7 mps 739 mmHg 74%
    07:00 +2°C° 0.2 mm 7 mps 740 mmHg 72%
    08:00 +1°C° 0.1 mm 8 mps 740 mmHg 71%
    09:00 +1°C° 0.1 mm 8 mps 741 mmHg 70%
    10:00 +1°C° 0.1 mm 8 mps 742 mmHg 70%
    11:00 +2°C° 0 mm 8 mps 742 mmHg 68%
    12:00 +2°C° 0 mm 8 mps 742 mmHg 66%
    13:00 +2°C° 0 mm 8 mps 743 mmHg 64%
    14:00 +1°C° 0.1 mm 8 mps 743 mmHg 65%
    15:00 +2°C° 0.1 mm 7 mps 744 mmHg 66%
    16:00 +2°C° 0.1 mm 6 mps 744 mmHg 68%
    17:00 +1°C° 0 mm 6 mps 744 mmHg 69%
    18:00 +1°C° 0 mm 6 mps 744 mmHg 71%
    19:00 -1°C° 0 mm 6 mps 744 mmHg 73%
    20:00 -1°C° 0 mm 6 mps 744 mmHg 74%
    21:00 0°C° 0 mm 5 mps 744 mmHg 76%
    22:00 0°C° 0 mm 5 mps 744 mmHg 78%
    23:00 -1°C° 0 mm 5 mps 744 mmHg 80%

    Day after tomorrow, 11 December, Tuesday

    Time Temperature Precipitation Wind Pressure Humidity
    00:00 -1°C° 0 mm 5 mps 744 mmHg 82%
    01:00 -1°C° 0 mm 5 mps 745 mmHg 85%
    02:00 -1°C° 0.1 mm 5 mps 744 mmHg 85%
    03:00 -1°C° 0.1 mm 5 mps 744 mmHg 85%
    04:00 -1°C° 0.1 mm 5 mps 744 mmHg 86%
    05:00 -1°C° 0.4 mm 4 mps 744 mmHg 86%
    06:00 0°C° 0.4 mm 4 mps 744 mmHg 87%
    07:00 0°C° 0.4 mm 4 mps 744 mmHg 88%
    08:00 0°C° 0.4 mm 4 mps 744 mmHg 89%
    09:00 +1°C° 0.4 mm 3 mps 744 mmHg 90%
    10:00 +1°C° 0.4 mm 3 mps 745 mmHg 90%
    11:00 +1°C° 0.2 mm 3 mps 745 mmHg 91%
    12:00 +2°C° 0.2 mm 2 mps 745 mmHg 91%
    13:00 +3°C° 0.2 mm 2 mps 745 mmHg 92%
    14:00 +2°C° 0.1 mm 2 mps 745 mmHg 93%
    15:00 +2°C° 0.1 mm 2 mps 746 mmHg 94%
    16:00 +2°C° 0.1 mm 2 mps 746 mmHg 95%
    17:00 +2°C° 0 mm 2 mps 747 mmHg 95%
    18:00 +2°C° 0 mm 2 mps 747 mmHg 96%
    19:00 +1°C° 0 mm 2 mps 748 mmHg 96%
    20:00 +1°C° 0 mm 2 mps 748 mmHg 96%
    21:00 +1°C° 0 mm 2 mps 748 mmHg 96%
    22:00 +1°C° 0 mm 2 mps 749 mmHg 96%
    23:00 +1°C° 0 mm 2 mps 749 mmHg 96%

    12 December, Wednesday

    Time Temperature Precipitation Wind Pressure Humidity
    00:00 +1°C° 0 mm 2 mps 750 mmHg 96%
    01:00 0°C° 0 mm 3 mps 750 mmHg 96%
    02:00 0°C° 0.1 mm 3 mps 751 mmHg 95%
    03:00 -1°C° 0.1 mm 3 mps 751 mmHg 95%
    04:00 -1°C° 0.1 mm 3 mps 751 mmHg 95%
    05:00 -1°C° 0 mm 2 mps 752 mmHg 95%
    06:00 -2°C° 0 mm 2 mps 752 mmHg 94%
    07:00 -2°C° 0 mm 2 mps 752 mmHg 94%
    08:00 -2°C° 0 mm 2 mps 753 mmHg 93%
    09:00 -1°C° 0 mm 2 mps 753 mmHg 91%
    10:00 -1°C° 0 mm 2 mps 754 mmHg 89%
    11:00 -1°C° 0 mm 2 mps 754 mmHg 88%
    12:00 +1°C° 0 mm 2 mps 754 mmHg 87%
    13:00 +1°C° 0 mm 2 mps 754 mmHg 86%
    14:00 +1°C° 0 mm 2 mps 754 mmHg 88%
    15:00 -1°C° 0 mm 2 mps 754 mmHg 90%
    16:00 -2°C° 0 mm 2 mps 754 mmHg 91%
    17:00 -2°C° 0 mm 2 mps 755 mmHg 92%
    18:00 -2°C° 0 mm 2 mps 755 mmHg 92%
    19:00 0°C° 0 mm 1 mps 755 mmHg 92%
    20:00 0°C° 0 mm 1 mps 755 mmHg 92%
    21:00 0°C° 0 mm 1 mps 755 mmHg 92%
    22:00 0°C° 0 mm 1 mps 756 mmHg 92%
    23:00 0°C° 0 mm 1 mps 756 mmHg 92%

    13 December, Thursday

    Time Temperature Precipitation Wind Pressure Humidity
    00:00 0°C° 0 mm 1 mps 756 mmHg 92%
    01:00 0°C° 0 mm 1 mps 756 mmHg 92%
    02:00 0°C° 0 mm 1 mps 756 mmHg 92%
    03:00 0°C° 0 mm 1 mps 756 mmHg 92%
    04:00 0°C° 0 mm 1 mps 756 mmHg 92%
    05:00 0°C° 0 mm 1 mps 755 mmHg 93%
    06:00 0°C° 0 mm 1 mps 755 mmHg 93%
    07:00 0°C° 0 mm 1 mps 755 mmHg 93%
    08:00 0°C° 0 mm 1 mps 755 mmHg 92%
    09:00 +1°C° 0 mm 1 mps 755 mmHg 91%
    10:00 +1°C° 0 mm 1 mps 755 mmHg 90%
    11:00 +1°C° 0 mm 1 mps 755 mmHg 89%
    12:00 +1°C° 0 mm 1 mps 755 mmHg 87%
    13:00 +1°C° 0 mm 1 mps 755 mmHg 86%
    14:00 +1°C° 0 mm 1 mps 754 mmHg 88%
    15:00 +1°C° 0 mm 1 mps 754 mmHg 89%
    16:00 +1°C° 0 mm 1 mps 754 mmHg 91%
    17:00 +1°C° 0 mm 1 mps 754 mmHg 91%
    18:00 +1°C° 0 mm 1 mps 754 mmHg 92%
    19:00 0°C° 0 mm 1 mps 754 mmHg 93%
    20:00 0°C° 0 mm 1 mps 754 mmHg 93%
    21:00 0°C° 0 mm 1 mps 754 mmHg 93%
    22:00 0°C° 0 mm 1 mps 754 mmHg 93%
    23:00 0°C° 0 mm 1 mps 754 mmHg 93%

    14 December, Friday

    Time Temperature Precipitation Wind Pressure Humidity
    00:00 0°C° 0 mm 1 mps 754 mmHg 92%
    01:00 0°C° 0 mm 1 mps 754 mmHg 92%
    02:00 0°C° 0 mm 1 mps 754 mmHg 92%
    03:00 0°C° 0 mm 1 mps 754 mmHg 91%
    04:00 0°C° 0 mm 1 mps 754 mmHg 91%
    05:00 0°C° 0 mm 1 mps 754 mmHg 91%
    06:00 0°C° 0 mm 1 mps 754 mmHg 91%
    07:00 0°C° 0 mm 1 mps 754 mmHg 92%
    08:00 0°C° 0 mm 1 mps 754 mmHg 91%
    09:00 0°C° 0 mm 1 mps 754 mmHg 90%
    10:00 0°C° 0 mm 1 mps 755 mmHg 89%
    11:00 +1°C° 0 mm 1 mps 754 mmHg 88%
    12:00 +1°C° 0 mm 1 mps 754 mmHg 86%
    13:00 +1°C° 0 mm 1 mps 754 mmHg 85%
    14:00 +1°C° 0 mm 1 mps 754 mmHg 86%
    15:00 +1°C° 0 mm 1 mps 754 mmHg 88%
    16:00 -1°C° 0 mm 2 mps 754 mmHg 89%
    17:00 -1°C° 0 mm 2 mps 754 mmHg 88%
    18:00 -1°C° 0 mm 2 mps 754 mmHg 87%
    19:00 -1°C° 0 mm 3 mps 754 mmHg 86%
    20:00 -1°C° 0 mm 2 mps 754 mmHg 86%
    21:00 -2°C° 0 mm 2 mps 754 mmHg 86%
    22:00 -2°C° 0 mm 2 mps 754 mmHg 85%
    23:00 -2°C° 0 mm 2 mps 754 mmHg 85%
    Show more